Vertical_Velocity
-7 3 -5 6 -7 -2 -2 0 -4 7 0 -2 6 4 3 9 9 -6 -0 -2 -9 5 -2 -2 0 1 -7 4 -0 -1 0 -0 -1 -1 2 -1 -0 -1 -3 -2 -3 -1 -1 -1
3 -9 7 4 0 1 4 0 -0 4 -1 -3 3 6 12 -2 10 1 7 12 -6 0 -5 -1 8 3 -6 2 -1 0 2 2 -2 -1 1 -1 -1 -2 1 1 -1 -1 1 1
4 -6 1 2 1 -1 -0 -4 -2 -4 3 7 -8 4 1 18 7 27 10 20 10 -8 -5 3 14 -2 2 0 2 1 1 -0 0 -3 -2 -1 -2 -1 -2 -4 -2 -1 -3 -4
1 -0 -3 -2 -3 -3 0 -3 -3 -3 -4 -2 6 -18 -12 -1 10 -21 10 11 1 -5 -12 3 6 1 -4 3 -1 2 1 -1 -1 3 -1 -0 -2 -1 -2 1 -0 -1 -2 -2
-8 -2 -1 -3 -2 -2 1 -2 -3 -0 -2 -7 5 -4 11 -1 13 20 19 -4 4 -2 -3 4 3 3 2 -2 2 0 -1 1 1 -0 0 -1 -1 -2 1 -1 -2 -2 -3 -6
-5 1 -1 1 -1 -8 -7 -4 -5 -2 -3 0 -3 3 -1 -5 -4 -4 2 3 8 -4 3 0 -0 -3 1 2 -1 -1 1 3 1 1 0 1 0 2 -0 -1 1 -2 -3 -5
-6 -11 -2 3 1 2 -10 -7 -10 1 -1 3 1 4 -3 -2 4 1 1 1 2 2 2 -1 3 1 -0 -2 1 2 1 0 2 2 0 0 0 -3 -1 -1 -3 -5 -3 -1
-0 -12 5 -6 -7 -10 -5 -4 -0 1 -4 -2 -4 22 26 -5 1 1 1 1 8 3 -5 -1 1 0 -2 1 2 2 2 1 1 0 1 -0 -3 -0 -3 -5 -4 -4 -6 5
-4 8 -1 -6 -2 -5 1 -4 -3 -0 3 2 8 15 17 -3 -3 2 1 5 -3 -7 -1 2 -0 -0 1 2 1 2 2 2 0 1 -0 -4 -1 -2 -2 -2 -6 -5 8 -3
-1 11 -3 4 -2 -5 -2 -4 4 5 -1 -2 8 8 8 -2 -1 -2 4 -3 -1 2 1 -0 -0 -0 1 2 2 3 3 -0 -0 -1 -2 -2 -1 -0 -3 -7 1 3 -3 -5
-3 -3 14 -7 -5 0 43 -0 -2 2 -0 -3 -2 0 -2 -1 1 2 -1 -1 1 -1 -0 -0 -1 1 3 2 3 5 1 0 0 0 -2 -1 0 -1 -5 -1 5 -4 -7 -6
-4 -1 1 -4 -7 12 -3 8 -0 -0 -0 0 -2 7 8 3 -2 -2 0 1 -1 1 -0 -0 0 2 2 3 4 4 -0 -0 0 -1 -1 -0 -2 -2 1 -1 -3 -4 -3 4
3 -4 -10 2 -5 2 -4 0 8 -3 0 -1 -1 5 8 7 -3 -3 0 -2 -0 1 -1 -0 1 0 1 2 5 -2 -0 -1 0 0 -1 -1 -0 -2 -4 -3 -3 -2 2 5
-2 -1 -2 -3 -0 -3 10 5 -1 2 -0 -0 3 2 1 12 -3 -0 -2 -1 2 -1 -0 1 -0 1 1 5 -1 0 -1 0 -0 -1 1 -2 -1 -2 -2 -1 -5 1 4 1
-9 -1 -2 -0 1 -4 0 0 0 -1 -2 -1 0 1 2 3 -1 -2 -2 1 0 1 1 -1 1 1 1 3 -1 1 1 1 -1 -1 -2 -0 -2 -3 -4 1 -0 -0 1 -3
-2 -0 0 0 -0 1 -2 -2 -4 -4 -1 -1 2 8 -4 -2 -1 -2 -1 -1 -0 1 -0 -1 2 -0 2 2 -0 0 1 -1 -2 -0 -1 -2 -4 -5 4 -2 -4 -2 -3 -0
-5 -2 -0 -0 -6 -2 1 -1 18 29 8 9 20 -3 0 0 -3 -2 1 -2 -0 0 0 1 -0 1 1 1 1 1 -0 -3 -2 2 -3 -0 -3 -2 3 -4 -6 2 -3 -0
-2 -1 1 4 1 10 5 10 -1 1 2 -0 2 -0 -2 -1 -3 -0 -2 -1 -1 1 -0 1 2 -1 1 3 -2 -0 -2 -3 -1 -0 -0 -2 -4 -1 -3 1 -4 20 4 2
-3 2 0 -0 -2 28 28 1 16 4 1 -1 6 -2 1 -0 1 -1 -3 -2 -1 1 -1 2 2 -1 1 3 -3 -3 -1 1 -2 -3 -1 -0 -5 -2 -3 -0 1 0 -3 2
-1 1 -1 3 -7 38 -1 9 -7 -1 -0 3 0 -1 0 -0 1 -0 -2 -1 -1 -0 1 0 2 -0 -0 1 -3 -3 0 2 -2 -2 -0 -1 -3 -2 -1 -3 1 1 -2 -2
1 -2 2 -1 -4 37 5 1 -2 12 2 -2 2 1 0 6 -1 -1 -3 -1 1 -2 3 -1 1 1 -1 -3 -1 -3 -1 1 1 -2 -2 -1 -1 -2 -2 -3 1 -1 -6 -2
2 -1 -3 -5 -2 20 1 2 2 -7 -0 1 1 1 1 -0 -0 1 -2 1 1 -1 1 -1 1 0 1 -6 -2 0 -3 -2 -1 -0 -1 -2 -0 -0 -2 -2 -2 -4 -3 -4
-0 -1 -5 -1 13 14 10 2 2 -6 4 -1 2 2 -0 1 -1 -1 -1 2 1 -1 2 -1 -0 1 1 -3 -5 -2 0 -3 -2 -1 3 2 -0 -1 -1 -2 -0 -0 -4 -2
-2 0 -4 4 12 8 5 3 1 -2 -6 1 -1 2 2 1 -0 -2 -0 1 1 -1 2 -1 -0 0 -0 -1 -2 -4 -3 -2 -3 -3 -1 1 1 -4 -3 -1 -1 -3 -1 -2
3 -1 1 -1 1 5 2 3 1 -2 -1 2 0 0 1 1 0 -2 -1 1 0 -0 1 -2 -0 1 -1 -1 -2 -1 -3 -2 -1 -1 -1 -1 -1 0 -1 -3 -4 -4 -1 -2
1 -1 -0 0 1 0 -0 5 -2 -1 1 -1 2 0 0 1 -0 -1 -0 2 1 1 1 -1 1 0 -0 -1 -2 -1 -1 -1 -3 -4 -2 -1 -1 -0 1 3 2 2 -0 1
Height
5775 5773 5771 5771 5768 5767 5765 5763 5760 5757 5755 5749 5748 5745 5740 5733 5730 5723 5718 5711 5706 5708 5705 5703 5702 5697 5691 5689 5684 5681 5677 5673 5669 5665 5660 5653 5647 5640 5634 5627 5620 5614 5608 5602
5771 5768 5768 5766 5764 5762 5759 5756 5753 5751 5746 5741 5738 5736 5731 5727 5725 5717 5713 5706 5698 5701 5699 5698 5696 5690 5686 5683 5679 5676 5672 5668 5662 5657 5652 5646 5639 5632 5624 5617 5610 5603 5596 5588
5767 5766 5763 5761 5759 5756 5754 5750 5746 5742 5738 5733 5727 5725 5723 5724 5712 5715 5702 5705 5697 5694 5693 5692 5692 5686 5682 5678 5675 5671 5667 5662 5657 5651 5644 5638 5630 5622 5615 5608 5600 5592 5584 5576
5763 5761 5760 5757 5754 5751 5748 5743 5738 5733 5728 5724 5719 5716 5710 5711 5707 5703 5702 5702 5695 5691 5689 5688 5684 5680 5678 5675 5671 5667 5662 5657 5651 5646 5637 5629 5622 5615 5607 5599 5590 5581 5572 5563
5758 5757 5754 5751 5748 5744 5740 5735 5730 5724 5718 5713 5713 5711 5705 5704 5704 5702 5697 5697 5696 5689 5686 5684 5679 5677 5675 5672 5667 5663 5659 5653 5645 5638 5630 5623 5614 5606 5598 5589 5579 5570 5560 5550
5755 5753 5751 5747 5742 5736 5731 5726 5720 5714 5710 5708 5706 5706 5702 5700 5699 5696 5696 5693 5693 5687 5682 5680 5678 5677 5673 5670 5665 5660 5654 5648 5640 5632 5624 5616 5607 5599 5590 5581 5571 5561 5549 5537
5750 5745 5743 5739 5734 5730 5722 5717 5712 5710 5707 5705 5703 5701 5698 5698 5698 5696 5695 5691 5688 5686 5682 5680 5678 5675 5672 5667 5662 5656 5649 5642 5634 5626 5618 5609 5600 5592 5583 5573 5562 5551 5538 5527
5746 5740 5737 5730 5726 5722 5716 5712 5708 5704 5704 5703 5700 5699 5696 5697 5695 5693 5689 5687 5685 5683 5682 5680 5677 5674 5670 5665 5659 5652 5645 5637 5629 5621 5612 5604 5595 5586 5576 5565 5552 5541 5530 5520
5740 5737 5729 5724 5718 5714 5710 5707 5706 5703 5702 5701 5699 5699 5695 5693 5691 5688 5685 5683 5683 5683 5681 5680 5676 5673 5668 5663 5656 5649 5641 5633 5625 5617 5608 5600 5591 5581 5569 5556 5546 5536 5527 5519
5732 5730 5723 5718 5712 5707 5704 5704 5703 5701 5700 5699 5698 5696 5693 5694 5690 5687 5684 5684 5684 5683 5682 5679 5676 5672 5667 5661 5653 5646 5638 5630 5622 5614 5604 5596 5586 5575 5563 5553 5543 5535 5528 5519
5724 5719 5720 5710 5706 5703 5699 5700 5700 5699 5699 5698 5697 5697 5695 5693 5690 5689 5688 5686 5685 5684 5683 5680 5676 5672 5666 5659 5651 5643 5636 5628 5619 5610 5602 5592 5581 5570 5561 5552 5544 5538 5529 5517
5718 5713 5710 5704 5700 5699 5698 5698 5697 5698 5699 5698 5697 5697 5695 5693 5691 5690 5690 5689 5687 5686 5684 5681 5677 5672 5666 5658 5650 5642 5634 5626 5618 5609 5600 5589 5578 5569 5561 5555 5548 5540 5530 5519
5712 5703 5701 5697 5694 5692 5693 5694 5696 5697 5697 5697 5697 5696 5695 5694 5693 5693 5692 5690 5689 5688 5685 5682 5678 5672 5666 5658 5650 5642 5633 5626 5617 5608 5597 5587 5578 5571 5565 5559 5551 5543 5533 5523
5705 5698 5692 5691 5688 5690 5691 5693 5695 5696 5697 5697 5696 5695 5695 5695 5695 5694 5694 5693 5692 5690 5687 5684 5679 5673 5667 5659 5650 5642 5634 5626 5617 5607 5596 5588 5582 5576 5569 5563 5556 5547 5538 5529
5699 5692 5687 5684 5684 5688 5690 5693 5694 5695 5696 5696 5696 5696 5695 5695 5696 5696 5696 5695 5694 5692 5690 5686 5681 5675 5668 5659 5651 5643 5635 5627 5617 5607 5599 5592 5586 5580 5574 5567 5560 5552 5545 5537
5693 5687 5683 5681 5683 5687 5689 5691 5693 5694 5695 5695 5696 5695 5695 5697 5697 5698 5698 5697 5696 5695 5693 5689 5684 5678 5671 5661 5653 5646 5638 5629 5619 5610 5603 5598 5592 5586 5580 5573 5568 5561 5553 5545
5687 5684 5682 5682 5684 5686 5690 5692 5692 5690 5694 5694 5693 5694 5697 5699 5699 5700 5700 5700 5699 5698 5696 5692 5688 5682 5674 5664 5656 5650 5642 5632 5622 5616 5610 5605 5599 5593 5588 5583 5576 5569 5563 5556
5685 5683 5682 5684 5685 5687 5689 5692 5693 5693 5694 5694 5694 5696 5699 5700 5702 5702 5702 5702 5702 5702 5699 5696 5692 5687 5678 5668 5662 5655 5647 5637 5629 5622 5617 5612 5606 5600 5597 5591 5584 5579 5574 5568
5682 5681 5683 5684 5686 5689 5693 5690 5693 5695 5696 5695 5695 5698 5701 5702 5704 5704 5705 5705 5706 5706 5703 5701 5697 5691 5683 5674 5668 5661 5653 5644 5635 5630 5625 5620 5614 5609 5605 5600 5595 5589 5583 5577
5679 5680 5682 5681 5684 5684 5684 5689 5691 5693 5695 5696 5698 5701 5703 5705 5706 5707 5708 5709 5710 5710 5708 5705 5702 5697 5690 5682 5675 5669 5661 5652 5643 5638 5634 5629 5624 5620 5615 5610 5606 5600 5594 5589
5676 5677 5679 5682 5685 5687 5688 5689 5690 5694 5696 5696 5700 5703 5705 5707 5708 5709 5712 5713 5714 5714 5712 5710 5707 5703 5697 5690 5682 5676 5670 5661 5654 5647 5642 5638 5634 5630 5625 5620 5615 5611 5606 5600
5672 5674 5678 5682 5686 5688 5689 5691 5692 5694 5696 5699 5702 5704 5706 5708 5711 5713 5715 5717 5718 5718 5717 5716 5713 5709 5704 5698 5691 5684 5678 5672 5664 5658 5652 5648 5644 5640 5635 5631 5626 5621 5617 5614
5669 5672 5678 5680 5687 5688 5688 5690 5693 5695 5698 5700 5703 5706 5709 5711 5714 5716 5719 5720 5722 5723 5722 5721 5719 5715 5712 5707 5701 5694 5687 5681 5676 5670 5664 5658 5653 5649 5645 5641 5637 5633 5629 5625
5665 5670 5675 5679 5685 5686 5688 5690 5693 5695 5699 5703 5705 5708 5711 5713 5716 5720 5722 5724 5726 5727 5726 5726 5724 5722 5719 5715 5710 5704 5698 5692 5686 5681 5675 5669 5665 5659 5655 5651 5648 5644 5641 5638
5663 5668 5673 5678 5682 5685 5688 5692 5694 5697 5701 5704 5707 5710 5713 5716 5719 5723 5725 5728 5730 5731 5731 5730 5729 5728 5726 5723 5719 5714 5709 5703 5698 5693 5687 5681 5676 5671 5667 5663 5659 5656 5653 5649
5661 5667 5673 5677 5682 5685 5689 5693 5695 5698 5702 5705 5709 5713 5716 5719 5722 5725 5728 5731 5734 5735 5735 5735 5735 5733 5732 5730 5728 5724 5719 5714 5710 5705 5700 5695 5689 5685 5681 5677 5674 5671 5667 5664